Location: Azul
(36.7830°S, 59.8500°W)
Time: 00:26:07
(UTC-03:00)

First-Move - Pass Details

Date: 30 October 2021
Orbit: 575 x 664 km, 97.6° (Epoch: 30 November)

Event Time Altitude Azimuth Distance (km) Brightness Sun altitude
Rises 03:55:01 0° 43° (NE) 2,947 ? -22.1°
Reaches altitude 10° 03:57:30 10° 56° (NE) 2,059 ? -21.7°
Maximum altitude 04:01:11 25° 111° (ESE) 1,326 ? -21.2°
Drops below altitude 10° 04:04:58 10° 166° (SSE) 2,111 ? -20.6°
Sets 04:07:31 0° 178° (S) 3,038 ? -20.2°
